[[{"header":{"parameterUnit":"m.s-1","parameterCategory":1,"la1":30.2991,"la2":30.254,"lo1":-89.0895,"lo2":-89.0444,"dy":0.0017,"dx":0.0017,"nx":28,"ny":28,"refTime":"2024-02-19T03:00:00:Z","depth":0,"parameterNumber":2,"parameterNumberName":"U-component_of_WINDS"},"data":[0,0,0,0,0,0,0,0,0,0,0,0,0,0,0,0,0,0,0,0,0,0,0,0,0,0,0,0,0,0,0,0,0,0,0,0,0,0,0,0,0,0,0,0,0,0,0,0,0,0,0,0,0,0,0,0,0,0,-0.7072,-0.7073,0,-0.7146,-0.7147,-0.7148,-0.7104,-0.7102,-0.71,-0.7098,-0.7177,-0.7181,-0.7185,0,0,0,0,0,0,0,0,0,0,0,0,0,-0.6896,-0.6899,-0.7072,-0.7073,-0.7074,-0.7146,-0.7147,-0.7148,-0.7104,-0.7102,-0.7099,-0.7097,-0.7176,-0.7181,-0.7186,0,0,0,0,0,0,0,0,0,0,0,0,0,-0.6971,-0.69,-0.7072,-0.7061,-0.706,-0.7146,-0.7147,-0.7149,-0.7105,-0.7102,-0.7098,-0.7095,-0.7174,-0.718,-0.7187,-0.7289,0,0,-0.7205,-0.7208,0,0,0,0,0,0,0,0,-0.6967,-0.6978,-0.7062,-0.7062,-0.7061,-0.7112,-0.7114,-0.7196,-0.7106,-0.7088,-0.7098,-0.7094,-0.7159,-0.7166,-0.7187,-0.7292,-0.7296,-0.7206,-0.721,-0.7212,-0.7214,0,0,0,0,0,0,0,-0.6962,-0.6975,-0.7102,-0.7063,-0.7063,-0.7053,-0.706,-0.7129,-0.7141,-0.7089,-0.7086,-0.7096,-0.7158,-0.7181,-0.7189,-0.7297,-0.7206,-0.7211,-0.7215,-0.7217,-0.749,-0.7494,0,0,0,0,0,0,-0.6957,-0.6971,-0.7099,-0.7104,-0.7005,-0.7059,-0.7067,-0.7099,-0.714,-0.7143,-0.7098,-0.7093,-0.7172,-0.7181,-0.7191,-0.7314,-0.7212,-0.7218,-0.7222,-0.7487,-0.7491,-0.7495,0,0,0,0,0,0,-0.6954,-0.6969,-0.7096,-0.7036,-0.7052,-0.7065,-0.7102,-0.7103,-0.7126,-0.7146,-0.7148,-0.712,-0.717,-0.7183,-0.7265,-0.7317,-0.7221,-0.7226,-0.7483,-0.7488,-0.7493,-0.7561,0,0,0,0,0,0,-0.6949,-0.6968,-0.7006,-0.7038,-0.7055,-0.7168,-0.7105,-0.7106,-0.7136,-0.713,-0.7167,-0.717,-0.7168,-0.7256,-0.7271,-0.7323,-0.7231,-0.7478,-0.7485,-0.7491,-0.7554,-0.7568,-0.758,0,0,0,0,0,-0.6942,-0.7023,-0.7009,-0.7024,-0.7103,-0.7171,-0.7181,-0.7177,-0.714,-0.718,-0.7193,-0.7169,-0.7308,-0.7264,-0.7281,-0.7336,-0.7475,-0.7483,-0.7491,-0.7549,-0.7565,-0.758,0,0,0,0,0,0,-0.7,-0.7027,-0.7011,-0.7104,-0.7136,-0.7163,-0.7213,-0.7195,-0.7238,-0.7231,-0.7224,-0.7233,-0.7319,-0.7335,-0.7287,-0.7437,-0.7386,-0.7397,-0.7424,-0.744,-0.7453,-0.7448,-0.7236,0,0,0,0,0,-0.7023,-0.7074,-0.7096,-0.7176,-0.7192,-0.72,-0.7229,-0.7223,-0.7256,-0.7269,-0.7288,-0.7322,-0.7373,-0.7407,-0.7455,-0.7555,-0.7564,-0.7601,-0.7614,-0.7625,-0.7636,-0.7691,-0.7708,-0.7521,-0.7521,-0.7521,0,0,-0.7072,-0.7093,-0.7127,-0.7188,-0.7212,-0.7267,-0.7212,-0.7272,-0.7313,-0.7279,-0.7357,-0.7372,-0.7409,-0.7501,-0.7543,-0.7518,-0.7689,-0.7635,-0.7643,-0.7648,-0.7701,-0.7719,-0.7734,-0.7527,-0.7526,-0.7525,0,0,-0.719,-0.721,-0.728,-0.7304,-0.7339,-0.7343,-0.736,-0.7391,-0.7399,-0.7477,-0.7453,-0.7501,-0.759,-0.7617,-0.7643,-0.7769,-0.775,-0.7785,-0.7853,-0.7907,-0.7921,-0.7935,-0.7981,-0.7998,-0.7795,-0.7795,-0.7796,0,-0.7247,-0.7328,-0.7318,-0.738,-0.7409,-0.7378,-0.7449,-0.7473,-0.7523,-0.7544,-0.7514,-0.7624,-0.7646,-0.7745,-0.7775,-0.7796,-0.7816,-0.7782,-0.792,-0.7933,-0.7945,-0.799,-0.8007,-0.78,-0.7799,-0.7799,-0.7798,0,-0.7397,-0.7453,-0.7505,-0.7553,-0.7586,-0.7653,-0.7654,-0.769,-0.768,-0.7687,-0.7768,-0.7793,-0.7846,-0.7869,-0.786,-0.7966,-0.795,-0.792,-0.7869,-0.7967,-0.8009,-0.8026,-0.7806,-0.7804,-0.7803,-0.7802,0,0,-0.7556,-0.7596,-0.7615,-0.7637,-0.7673,-0.7717,-0.7781,-0.7832,-0.7863,-0.7898,-0.7953,-0.8027,-0.8,-0.8029,-0.8023,-0.807,-0.817,-0.8035,-0.8035,-0.8061,-0.829,-0.8314,-0.8334,-0.8156,-0.8159,-0.8162,-0.8288,0,-0.7677,-0.779,-0.7782,-0.7889,-0.7941,-0.7912,-0.7968,-0.7997,-0.8005,-0.8052,-0.8061,-0.8114,-0.8073,-0.8091,-0.8136,-0.8149,-0.8217,-0.8139,-0.8209,-0.8212,-0.8203,-0.8355,-0.8381,-0.8499,-0.8304,-0.8306,-0.8308,0,-0.7835,-0.7874,-0.7985,-0.8013,-0.8035,-0.8086,-0.8131,-0.8175,-0.8207,-0.821,-0.8242,-0.8227,-0.8294,-0.8238,-0.8331,-0.8278,-0.8306,-0.8316,-0.8321,-0.833,-0.8268,-0.837,-0.8536,-0.8555,-0.8334,-0.8332,-0.833,0,-0.7942,-0.8022,-0.8099,-0.8118,-0.8152,-0.8189,-0.8205,-0.8233,-0.8264,-0.8304,-0.8324,-0.8371,-0.8398,-0.8435,-0.8435,-0.8394,-0.8529,-0.8473,-0.8535,-0.8535,-0.8567,-0.8565,-0.8742,-0.8581,-0.858,-0.858,-0.858,0,-0.808,-0.815,-0.8148,-0.8196,-0.8273,-0.8263,-0.8341,-0.8353,-0.8378,-0.8429,-0.8405,-0.8453,-0.8448,-0.8497,-0.8496,-0.8574,-0.8585,-0.8591,-0.859,-0.8594,-0.8594,-0.8615,-0.8607,-0.8585,-0.8584,-0.8583,-0.8582,0,-0.8214,-0.8215,-0.8298,-0.8322,-0.833,-0.8386,-0.8408,-0.8453,-0.8458,-0.8522,-0.8537,-0.8546,-0.8602,-0.8604,-0.8668,-0.8668,-0.8763,-0.8752,-0.8752,-0.8751,-0.8813,-0.8808,-0.9011,-0.9038,-0.8857,-0.8859,-0.886,0,-0.8304,-0.8356,-0.8386,-0.8417,-0.8435,-0.8486,-0.8517,-0.8509,-0.8543,-0.8582,-0.8624,-0.8677,-0.8719,-0.881,-0.8823,-0.8872,-0.8864,-0.8931,-0.8871,-0.8874,-0.8867,-0.8865,-0.8871,-0.8944,-0.8946,-0.8948,-0.8949,0,-0.8463,-0.846,-0.8505,-0.855,-0.8587,-0.8622,-0.8655,-0.8682,-0.8678,-0.8717,-0.8773,-0.8806,-0.887,-0.8924,-0.8972,-0.8989,-0.897,-0.8967,-0.8985,-0.8991,-0.8989,-0.8993,-0.8787,-0.8964,-0.8962,-0.8961,-0.896,-0.896,-0.8579,-0.8625,-0.8653,-0.8703,-0.8726,-0.8757,-0.8801,-0.8811,-0.8857,-0.8909,-0.8901,-0.8964,-0.8995,-0.9056,-0.9077,-0.9127,-0.9104,-0.9128,-0.9135,-0.9142,-0.9149,-0.8979,-0.9135,-0.9135,-0.9134,-0.9134,-0.9134,0,-0.8739,-0.8755,-0.8801,-0.8847,-0.8887,-0.8862,-0.8896,-0.8932,-0.8987,-0.9016,-0.9058,-0.9122,-0.9174,-0.919,-0.924,-0.9277,-0.9269,-0.9291,-0.9289,-0.9294,-0.9166,-0.9147,-0.9296,-0.9296,-0.9296,-0.9296,-0.9296,-0.9296,-0.8827,-0.8903,-0.8904,-0.8991,-0.9007,-0.9067,-0.909,-0.9118,-0.9141,-0.9214,-0.9256,-0.9265,-0.929,-0.9341,-0.9388,-0.9391,-0.9412,-0.9437,-0.9438,-0.9319,-0.9303,-0.9287,-0.9269,-0.9441,-0.9442,-0.9561,-0.9562,-0.9563]},{"header":{"parameterUnit":"m.s-1","parameterCategory":1,"la1":30.2991,"la2":30.254,"lo1":-89.0895,"lo2":-89.0444,"dy":0.0017,"dx":0.0017,"nx":28,"ny":28,"refTime":"2024-02-19T03:00:00:Z","depth":0,"parameterNumber":3,"parameterNumberName":"V-component_of_WINDS"},"data":[0,0,0,0,0,0,0,0,0,0,0,0,0,0,0,0,0,0,0,0,0,0,0,0,0,0,0,0,0,0,0,0,0,0,0,0,0,0,0,0,0,0,0,0,0,0,0,0,0,0,0,0,0,0,0,0,0,0,-4.1801,-4.1802,0,-4.1895,-4.1896,-4.1897,-4.1837,-4.1834,-4.1831,-4.1828,-4.1921,-4.1926,-4.1931,0,0,0,0,0,0,0,0,0,0,0,0,0,-4.1564,-4.1569,-4.1801,-4.1802,-4.1803,-4.1895,-4.1896,-4.1898,-4.1837,-4.1834,-4.183,-4.1827,-4.1919,-4.1925,-4.1931,0,0,0,0,0,0,0,0,0,0,0,0,0,-4.1664,-4.1571,-4.1801,-4.1784,-4.1784,-4.1895,-4.1896,-4.1898,-4.1838,-4.1834,-4.183,-4.1826,-4.1917,-4.1925,-4.1932,-4.2063,0,0,-4.1956,-4.1959,0,0,0,0,0,0,0,0,-4.1658,-4.1672,-4.1786,-4.1786,-4.1785,-4.185,-4.1847,-4.1953,-4.1839,-4.1817,-4.1828,-4.1824,-4.1901,-4.1909,-4.1936,-4.2068,-4.2072,-4.1956,-4.1961,-4.1964,-4.1966,0,0,0,0,0,0,0,-4.1651,-4.1668,-4.1838,-4.1787,-4.1787,-4.1771,-4.178,-4.1867,-4.1881,-4.1819,-4.1815,-4.1827,-4.19,-4.1929,-4.1938,-4.2073,-4.1956,-4.1963,-4.1968,-4.1971,-4.2315,-4.232,0,0,0,0,0,0,-4.1646,-4.1663,-4.1835,-4.1841,-4.171,-4.1779,-4.1789,-4.1833,-4.188,-4.1883,-4.183,-4.1824,-4.1918,-4.1929,-4.1941,-4.2096,-4.1964,-4.1971,-4.1976,-4.2311,-4.2316,-4.2321,0,0,0,0,0,0,-4.1642,-4.1662,-4.1831,-4.1751,-4.1771,-4.1787,-4.1837,-4.1837,-4.1867,-4.1889,-4.1891,-4.1858,-4.1915,-4.193,-4.2033,-4.2099,-4.1975,-4.1982,-4.2305,-4.2312,-4.2319,-4.2409,0,0,0,0,0,0,-4.1635,-4.1661,-4.1712,-4.1752,-4.1776,-4.1924,-4.1841,-4.1842,-4.188,-4.1873,-4.1915,-4.1918,-4.1913,-4.2022,-4.2041,-4.2107,-4.1988,-4.2299,-4.2308,-4.2317,-4.2401,-4.2419,-4.2434,0,0,0,0,0,-4.1627,-4.1733,-4.1715,-4.1736,-4.184,-4.1928,-4.1941,-4.1934,-4.1886,-4.1937,-4.1951,-4.1917,-4.2089,-4.2033,-4.2054,-4.2123,-4.2295,-4.2306,-4.2316,-4.2393,-4.2415,-4.2434,0,0,0,0,0,0,-4.1699,-4.1738,-4.1719,-4.1842,-4.1882,-4.1918,-4.1981,-4.1957,-4.2011,-4.2002,-4.1989,-4.1999,-4.2107,-4.2125,-4.2063,-4.2252,-4.2184,-4.2199,-4.2236,-4.2257,-4.2273,-4.2266,-4.1994,0,0,0,0,0,-4.173,-4.1799,-4.1829,-4.1935,-4.1956,-4.1966,-4.2003,-4.1995,-4.2035,-4.2052,-4.2073,-4.2113,-4.2176,-4.2217,-4.2276,-4.2403,-4.241,-4.2461,-4.2477,-4.2491,-4.2504,-4.2571,-4.2593,-4.2355,-4.2355,-4.2355,0,0,-4.1793,-4.1823,-4.1868,-4.195,-4.198,-4.2051,-4.198,-4.2058,-4.211,-4.2063,-4.2162,-4.2179,-4.2222,-4.2338,-4.239,-4.2356,-4.2571,-4.2504,-4.2515,-4.252,-4.2583,-4.2606,-4.2626,-4.2362,-4.2361,-4.236,0,0,-4.1945,-4.1975,-4.2066,-4.2098,-4.2145,-4.215,-4.2172,-4.2211,-4.2221,-4.2321,-4.2287,-4.2347,-4.2456,-4.2488,-4.2518,-4.2681,-4.2651,-4.2701,-4.2787,-4.2853,-4.2871,-4.2888,-4.2945,-4.2966,-4.2713,-4.2714,-4.2714,0,-4.2017,-4.2124,-4.2115,-4.2196,-4.2233,-4.2194,-4.2285,-4.2316,-4.238,-4.2405,-4.2367,-4.2502,-4.2529,-4.265,-4.269,-4.2717,-4.274,-4.2696,-4.287,-4.2886,-4.2901,-4.2956,-4.2977,-4.2719,-4.2719,-4.2718,-4.2718,0,-4.221,-4.2284,-4.2352,-4.2415,-4.2459,-4.2545,-4.2548,-4.2593,-4.258,-4.2589,-4.269,-4.272,-4.2784,-4.2812,-4.28,-4.2932,-4.291,-4.2871,-4.2803,-4.293,-4.2981,-4.3001,-4.2727,-4.2725,-4.2724,-4.2722,0,0,-4.241,-4.2468,-4.2493,-4.252,-4.2569,-4.2626,-4.2708,-4.2772,-4.2811,-4.2856,-4.2924,-4.3016,-4.2981,-4.3015,-4.3006,-4.3064,-4.3189,-4.3018,-4.3018,-4.3048,-4.3335,-4.3364,-4.3388,-4.317,-4.3174,-4.3177,-4.3331,0,-4.2564,-4.2711,-4.2705,-4.2841,-4.2908,-4.2872,-4.2944,-4.2981,-4.2991,-4.3049,-4.3059,-4.3125,-4.3074,-4.3094,-4.3149,-4.3162,-4.3247,-4.3151,-4.3232,-4.3235,-4.3222,-4.3415,-4.3445,-4.3589,-4.3351,-4.3354,-4.3357,0,-4.2764,-4.2816,-4.2959,-4.2997,-4.3025,-4.309,-4.3147,-4.3203,-4.3243,-4.3247,-4.3285,-4.3267,-4.3349,-4.3279,-4.3391,-4.3326,-4.3358,-4.3369,-4.3375,-4.3382,-4.3303,-4.3426,-4.3635,-4.3657,-4.3388,-4.3386,-4.3383,0,-4.2894,-4.3001,-4.31,-4.3124,-4.3171,-4.3218,-4.3239,-4.3275,-4.3313,-4.3363,-4.3387,-4.3446,-4.3477,-4.3522,-4.3519,-4.3468,-4.3632,-4.3562,-4.3636,-4.3636,-4.3672,-4.3669,-4.3888,-4.3694,-4.3693,-4.3693,-4.3692,0,-4.3066,-4.3155,-4.3159,-4.322,-4.3317,-4.3309,-4.3405,-4.3422,-4.3454,-4.3516,-4.3488,-4.3547,-4.3539,-4.3598,-4.3595,-4.3688,-4.3702,-4.3706,-4.3704,-4.3708,-4.3708,-4.3729,-4.3719,-4.3699,-4.3697,-4.3696,-4.3695,0,-4.3229,-4.3235,-4.3341,-4.3376,-4.3387,-4.3458,-4.3487,-4.3544,-4.3552,-4.3631,-4.3649,-4.366,-4.3727,-4.3729,-4.3805,-4.3804,-4.3916,-4.3903,-4.3903,-4.3901,-4.3974,-4.3967,-4.4214,-4.4245,-4.4031,-4.4033,-4.4035,0,-4.3338,-4.3406,-4.3449,-4.3489,-4.3513,-4.3579,-4.3618,-4.3611,-4.3653,-4.3704,-4.3754,-4.3819,-4.387,-4.3979,-4.3993,-4.4051,-4.4039,-4.4122,-4.4048,-4.4049,-4.4039,-4.4035,-4.4041,-4.4136,-4.4138,-4.414,-4.4142,0,-4.3531,-4.3531,-4.3589,-4.3649,-4.3696,-4.3742,-4.3785,-4.3819,-4.3817,-4.3865,-4.3934,-4.3974,-4.4053,-4.4117,-4.4173,-4.4193,-4.4167,-4.4165,-4.4185,-4.419,-4.4187,-4.4188,-4.3942,-4.4159,-4.4158,-4.4156,-4.4155,-4.4155,-4.367,-4.3728,-4.3767,-4.3832,-4.3864,-4.3904,-4.3959,-4.3974,-4.4032,-4.4096,-4.4089,-4.4165,-4.4202,-4.4275,-4.43,-4.4358,-4.4329,-4.4358,-4.4366,-4.4373,-4.438,-4.4178,-4.4368,-4.4368,-4.4367,-4.4367,-4.4366,0,-4.3861,-4.3884,-4.3944,-4.4005,-4.4056,-4.4029,-4.4074,-4.4118,-4.4186,-4.4224,-4.4275,-4.4353,-4.4415,-4.4434,-4.4494,-4.4537,-4.4526,-4.4553,-4.4549,-4.4554,-4.4403,-4.438,-4.456,-4.456,-4.456,-4.456,-4.456,-4.456,-4.3966,-4.4062,-4.4066,-4.4177,-4.4199,-4.4275,-4.4303,-4.434,-4.4369,-4.4459,-4.451,-4.4523,-4.4552,-4.4614,-4.4668,-4.4672,-4.4695,-4.4726,-4.4725,-4.4584,-4.4564,-4.4546,-4.4524,-4.4731,-4.4732,-4.487,-4.4872,-4.4873]}]]